FW5215 Weather Reports


time (UTC)temp
C
wind
direction
speed
KPH
gust
KPH
rain 1hr
cm
rain 24hr
cm
rain mn
cm
humidity
%
barometer
mb
20260906161508 25 172 4.8 12.9 0.00 0.00 0.00 70 1019.9
20260906160105 25 200 3.2 12.9 0.00 0.00 0.00 73 1019.8
20260906154508 25 178 3.2 19.3 0.00 0.00 0.00 74 1019.6
20260906153013 24 107 4.8 14.5 0.00 0.00 0.00 75 1019.7
20260906151506 24 139 6.4 14.5 0.00 0.00 0.00 78 1019.8
20260906150104 23 172 3.2 12.9 0.00 0.00 0.00 80 1019.9
20260906144508 23 140 3.2 12.9 0.00 0.00 0.00 80 1020.1
20260906143116 23 154 3.2 8.0 0.00 0.00 0.00 82 1020.1
20260906141508 22 124 1.6 12.9 0.00 0.00 0.00 86 1020.1
20260906140010 21 130 3.2 11.3 0.00 0.00 0.00 88 1020.4
20260906134604 20 132 3.2 9.7 0.00 0.00 0.00 92 1020.2
20260906133011 19 109 0.0 4.8 0.00 0.00 0.00 96 1019.9
20260906131615 18 100 1.6 4.8 0.00 0.00 0.00 99 1019.8
20260906130106 17 3 0.0 3.2 0.00 0.00 0.00 99 1019.8
20260906124514 17 1 0.0 1.6 0.00 0.00 0.00 98 1019.8
20260906123013 16 102 0.0 1.6 0.00 0.00 0.00 97 1019.6
20260906121608 16 334 0.0 0.0 0.00 0.00 0.00 97 1019.7
20260906120010 16 334 0.0 0.0 0.00 0.00 0.00 96 1019.6
20260906114508 16 334 0.0 0.0 0.00 0.00 0.00 96 1019.5
20260906113006 16 334 0.0 1.6 0.00 0.00 0.00 96 1019.2
20260906111607 16 334 0.0 0.0 0.00 0.00 0.00 96 1019.1
20260906110016 16 334 0.0 0.0 0.00 0.00 0.00 96 1018.9
20260906104514 16 334 0.0 0.0 0.00 0.00 0.00 95 1018.8
20260906103009 16 86 0.0 1.6 0.00 0.00 0.00 95 1018.7
20260906101505 17 36 0.0 1.6 0.00 0.00 0.00 95 1018.8
20260906100110 17 53 0.0 3.2 0.00 0.00 0.00 96 1018.6
20260906093004 17 39 0.0 1.6 0.00 0.00 0.00 95 1018.6
20260906091523 17 59 0.0 3.2 0.00 0.00 0.00 96 1018.5
20260906090010 17 26 0.0 3.2 0.00 0.00 0.00 95 1018.7
20260906084645 17 28 0.0 3.2 0.00 0.00 0.00 95 1018.6
20260906083007 18 30 0.0 1.6 0.00 0.00 0.00 95 1018.5
20260906081528 18 39 0.0 1.6 0.00 0.00 0.00 95 1018.5
20260906080004 18 36 0.0 1.6 0.00 0.00 0.00 95 1018.5
20260906074505 18 84 0.0 0.0 0.00 0.00 0.00 95 1018.5
20260906073110 18 84 0.0 1.6 0.00 0.00 0.00 95 1018.3
20260906071511 18 40 0.0 1.6 0.00 0.00 0.00 95 1018.4
20260906070014 18 78 0.0 1.6 0.00 0.00 0.00 95 1018.6
20260906064509 18 39 0.0 1.6 0.00 0.00 0.00 95 1018.8
20260906063003 18 43 0.0 3.2 0.00 0.00 0.00 95 1018.8
20260906060011 18 41 0.0 3.2 0.00 0.00 0.00 94 1018.6
20260906054510 18 54 0.0 1.6 0.00 0.00 0.00 94 1018.7
20260906053009 18 36 0.0 1.6 0.00 0.00 0.00 94 1018.7
20260906051508 18 36 0.0 1.6 0.00 0.00 0.00 93 1018.7
20260906050021 18 39 0.0 1.6 0.00 0.00 0.00 93 1018.7
20260906044506 18 18 0.0 3.2 0.00 0.00 0.00 93 1018.9
20260906043008 18 15 0.0 3.2 0.00 0.00 0.00 93 1018.8
20260906041604 18 45 0.0 1.6 0.00 0.00 0.00 93 1018.8
20260906040013 18 30 0.0 1.6 0.00 0.00 0.00 93 1018.7
20260906034513 19 30 0.0 1.6 0.00 0.00 0.00 93 1018.8
20260906033008 19 25 0.0 1.6 0.00 0.00 0.00 92 1018.9
20260906031506 19 25 0.0 0.0 0.00 0.00 0.00 92 1018.9
20260906030135 19 25 0.0 1.6 0.00 0.00 0.00 92 1018.9
20260906024607 20 284 0.0 3.2 0.00 0.00 0.00 93 1019.0
20260906023012 20 278 1.6 4.8 0.00 0.00 0.00 93 1018.6
20260906021511 20 6 0.0 0.0 0.00 0.00 0.00 90 1017.8
20260906020009 20 6 0.0 0.0 0.00 0.00 0.00 90 1017.5
20260906014509 20 18 0.0 3.2 0.00 0.00 0.00 89 1016.9
20260906013009 20 30 0.0 4.8 0.00 0.00 0.00 88 1016.8
20260906011506 21 120 0.0 3.2 0.00 0.00 0.00 87 1016.6
20260906010104 21 36 0.0 4.8 0.00 0.00 0.00 84 1016.6
20260906004512 21 69 0.0 4.8 0.00 0.00 0.00 82 1016.3
20260906003010 22 53 0.0 6.4 0.00 0.00 0.00 81 1016.5
20260906001508 22 32 0.0 4.8 0.00 0.00 0.00 80 1016.7
20260906000005 22 36 1.6 6.4 0.00 0.00 0.00 79 1016.7
20260905234506 23 44 1.6 8.0 0.00 0.00 0.00 78 1016.8
20260905233004 23 94 1.6 14.5 0.00 0.00 0.00 77 1016.7
20260905231604 23 68 3.2 9.7 0.00 0.00 0.00 77 1016.7
20260905230012 25 69 1.6 6.4 0.00 0.00 0.00 75 1017.0
20260905224511 25 32 1.6 6.4 0.00 0.00 0.00 73 1017.0
20260905223012 25 18 1.6 8.0 0.00 0.00 0.00 72 1017.2
20260905221511 25 64 1.6 9.7 0.00 0.00 0.00 72 1017.1
20260905220006 25 57 0.0 6.4 0.00 0.00 0.00 73 1017.0
20260905214503 25 345 1.6 6.4 0.00 0.00 0.00 72 1017.4
20260905213004 25 33 1.6 6.4 0.00 0.00 0.00 72 1017.5
20260905211603 25 86 1.6 12.9 0.00 0.00 0.00 72 1017.6
20260905210014 25 57 1.6 6.4 0.00 0.00 0.00 73 1017.9
20260905204512 25 118 1.6 4.8 0.00 0.00 0.00 73 1018.0
20260905203010 26 145 1.6 9.7 0.00 0.00 0.00 72 1017.8
20260905201509 27 350 3.2 6.4 0.00 0.00 0.00 70 1018.0
20260905200008 26 14 0.0 4.8 0.00 0.00 0.00 73 1017.8
20260905194603 25 38 1.6 4.8 0.00 0.00 0.00 75 1017.9
20260905193024 26 33 1.6 6.4 0.00 0.00 0.00 70 1018.0
20260905191509 26 80 0.0 4.8 0.00 0.00 0.00 72 1017.9
20260905190013 25 180 1.6 9.7 0.00 0.00 0.00 73 1017.9
20260905184508 26 40 0.0 4.8 0.00 0.00 0.00 71 1017.7
20260905183104 26 325 1.6 4.8 0.00 0.00 0.00 70 1017.9
20260905180011 25 260 0.0 3.2 0.00 0.00 0.00 75 1018.6
20260905174518 25 267 1.6 6.4 0.00 0.00 0.00 76 1018.6
20260905173004 24 340 1.6 4.8 0.00 0.00 0.00 78 1018.8
20260905171605 24 311 0.0 3.2 0.00 0.00 0.00 77 1018.8
20260905170007 24 168 0.0 3.2 0.00 0.00 0.00 80 1018.8
20260905164504 24 288 0.0 3.2 0.00 0.00 0.00 81 1018.8
20260905163108 23 51 0.0 3.2 0.00 0.00 0.00 84 1018.7